Hartford, CT

9:11 PM EDT on August 27, 2016 (GMT -0400)
Bradley International

Weather History for KBDL - October, 2013

Change the Weather History Date:

Thursday, October 24, 2013

  Actual Average Record
Temperature  
Mean Temperature 45 °F 49 °F  
Max Temperature 54 °F 60 °F 80 °F (1972)
Min Temperature 35 °F 39 °F 21 °F (1969)
Degree Days  
Heating Degree Days 20 16  
Month to date heating degree days 202 289  
Since 1 July heating degree days 335 411  
Cooling Degree Days 0 0  
Month to date cooling degree days 5 5  
Year to date cooling degree days 894 754  
Moisture  
Dew Point 28 °F    
Average Humidity 56    
Maximum Humidity 79    
Minimum Humidity 32    
Precipitation  
Precipitation 0.00 in 0.13 in 4.31 in (1959)
Month to date precipitation 2.08 3.48  
Year to date precipitation 43.66 37.63  
Snow  
Snow 0.00 in 0.00 in T in (1960)
Month to date snowfall 0.0 0.0  
Since 1 July snowfall 0.0 0.0  
Since 1 September snowfall 0.0 0.0  
Snow Depth 0.00 in    
Sea Level Pressure  
Sea Level Pressure 29.82 in    
Wind  
Wind Speed 9 mph (WSW)    
Max Wind Speed 23 mph    
Max Gust Speed 28 mph    
Visibility 10 miles    
Events      
T = Trace of Precipitation, MM = Missing Value Source: NWS Daily Summary

Daily Weather History Graph

Daily Weather History Graph

Search for Another Location

Airport or City:

Trip Planner

Search our weather history database for the weather conditions in past years. The results will help you decide how hot, cold, wet, or windy it might be!

Date:

Astronomy

Oct. 24, 2013 Rise Set
Actual Time 7:13 AM EDT 5:55 PM EDT
Civil Twilight 6:45 AM EDT 6:23 PM EDT
Nautical Twilight 6:12 AM EDT 6:56 PM EDT
Astronomical Twilight 5:40 AM EDT 7:28 PM EDT
Moon 10:15 PM EDT (10/24) 12:14 PM EDT (10/24)
Length of Visible Light 11h 38m
Length of Day
10h 41m
Waning Gibbous, 71% of the Moon is Illuminated
Oct 24
Waning Gibbous
Oct 26
Last Quarter
Nov 3
New
Nov 10
First Quarter
Nov 17
Full

Hourly Weather History & Observations

Time (EDT) Temp. Windchill Dew Point Humidity Pressure Visibility Wind Dir Wind Speed Gust Speed Precip Events Conditions
12:51 AM 45.0 °F 41.2 °F 34.0 °F 65% 29.70 in 10.0 mi West 6.9 mph - N/A   Mostly Cloudy
1:51 AM 43.0 °F 38.8 °F 34.0 °F 71% 29.71 in 10.0 mi WNW 6.9 mph - N/A   Mostly Cloudy
2:51 AM 39.9 °F 36.7 °F 33.1 °F 77% 29.73 in 10.0 mi WNW 4.6 mph - N/A   Partly Cloudy
3:51 AM 39.9 °F - 32.0 °F 73% 29.73 in 10.0 mi Calm Calm - N/A   Partly Cloudy
4:51 AM 39.9 °F 35.1 °F 30.9 °F 70% 29.76 in 10.0 mi NW 6.9 mph - N/A   Partly Cloudy
5:51 AM 39.0 °F 36.8 °F 30.9 °F 73% 29.78 in 10.0 mi West 3.5 mph - N/A   Partly Cloudy
6:51 AM 37.0 °F 32.4 °F 30.9 °F 79% 29.80 in 10.0 mi SW 5.8 mph - N/A   Partly Cloudy
7:51 AM 37.9 °F 32.7 °F 30.9 °F 76% 29.83 in 10.0 mi WSW 6.9 mph - N/A   Partly Cloudy
8:51 AM 42.1 °F 37.1 °F 32.0 °F 67% 29.84 in 10.0 mi WSW 8.1 mph - N/A   Clear
9:51 AM 46.0 °F 39.9 °F 30.0 °F 54% 29.85 in 10.0 mi West 13.8 mph - N/A   Partly Cloudy
10:51 AM 50.0 °F - 26.1 °F 39% 29.85 in 10.0 mi West 12.7 mph 21.9 mph N/A   Partly Cloudy
11:51 AM 50.0 °F - 25.0 °F 38% 29.84 in 10.0 mi West 16.1 mph - N/A   Partly Cloudy
12:51 PM 52.0 °F - 25.0 °F 35% 29.82 in 10.0 mi WNW 10.4 mph 20.7 mph N/A   Scattered Clouds
1:51 PM 51.1 °F - 23.0 °F 33% 29.81 in 10.0 mi West 11.5 mph - N/A   Scattered Clouds
2:51 PM 51.1 °F - 24.1 °F 35% 29.81 in 10.0 mi West 15.0 mph - N/A   Mostly Cloudy
3:51 PM 52.0 °F - 23.0 °F 32% 29.81 in 10.0 mi West 12.7 mph - N/A   Mostly Cloudy
4:51 PM 50.0 °F - 21.9 °F 33% 29.82 in 10.0 mi West 16.1 mph - N/A   Scattered Clouds
5:51 PM 48.9 °F - 21.9 °F 35% 29.84 in 10.0 mi West 10.4 mph - N/A   Partly Cloudy
6:51 PM 46.0 °F 44.8 °F 23.0 °F 40% 29.86 in 10.0 mi WSW 3.5 mph - N/A   Partly Cloudy
7:51 PM 44.1 °F 40.1 °F 25.0 °F 47% 29.88 in 10.0 mi SW 6.9 mph - N/A   Scattered Clouds
8:51 PM 43.0 °F 40.3 °F 26.1 °F 51% 29.88 in 10.0 mi SW 4.6 mph - N/A   Partly Cloudy
9:51 PM 43.0 °F 38.8 °F 26.1 °F 51% 29.90 in 10.0 mi SW 6.9 mph - N/A   Partly Cloudy
10:51 PM 41.0 °F 36.4 °F 27.0 °F 57% 29.91 in 10.0 mi SW 6.9 mph - N/A   Clear
11:51 PM 39.9 °F 36.7 °F 27.0 °F 60% 29.92 in 10.0 mi SSW 4.6 mph - N/A   Clear